This demonstration page uses our WeatherBlox Daily Observations layout. Learn more.

Left ArrowRight Arrow

39.92423, -83.80882

Hourly Observations for May 16, 2021

Temp ( °F °C ) Dew Point ( °F °C ) Humidity (%) Winds ( mph kmh ) Pressure ( in mb ) Visibility ( mi km ) Precip ( " mm )
12:56 am 00:56 Cloudy 58 14.4 45 7.2 62 62 N N/A 30.19 1022 10 16 N/A
1:56 am 01:56 Cloudy with Light Rain 58 14.4 45 7.2 62 62 VRB 5 7 30.21 1023 10 16 0.00 0.00
2:56 am 02:56 Cloudy 62 16.7 38 3.3 41 41 ESE 5 7 30.21 1023 10 16 0.00 0.00
3:56 am 03:56 Cloudy 59 15 42 5.6 54 54 S 8 13 30.21 1023 10 16 N/A
4:56 am 04:56 Cloudy 56 13.3 46 7.8 70 70 undefined N/A 30.21 1023 10 16 0.00 0.00
5:56 am 05:56 Cloudy 56 13.3 45 7.2 67 67 ESE 6 9 30.21 1023 10 16 N/A
6:56 am 06:56 Mostly Cloudy 54 12.2 48 8.9 80 80 E 3 6 30.22 1023 10 16 0.00 0.00
7:56 am 07:56 Cloudy 56 13.3 49 9.4 77 77 E 3 6 30.24 1024 10 16 N/A
8:56 am 08:56 Cloudy 61 16.1 47 8.3 60 60 SE 10 17 30.25 1024 10 16 N/A
9:56 am 09:56 Partly Cloudy 65 18.3 43 6.1 45 45 SE 10 17 30.25 1024 10 16 N/A
10:56 am 10:56 Sunny 66 18.9 42 5.6 42 42 S 7 11 30.25 1024 10 16 N/A
11:56 am 11:56 Sunny 69 20.6 44 6.7 41 41 SW 8 13 30.24 1024 10 16 N/A
12:56 pm 12:56 Mostly Cloudy 67 19.4 43 6.1 42 42 VRB 3 6 30.23 1024 10 16 N/A
1:56 pm 13:56 Sunny 68 20 44 6.7 42 42 VRB 3 6 30.21 1023 10 16 N/A
2:56 pm 14:56 Mostly Sunny 69 20.6 45 7.2 42 42 N N/A 30.20 1023 10 16 N/A
3:56 pm 15:56 Partly Cloudy 69 20.6 44 6.7 41 41 VRB 3 6 30.19 1022 8 13 N/A
4:56 pm 16:56 Mostly Cloudy 69 20.6 44 6.7 41 41 S 5 7 30.18 1022 10 16 N/A
5:56 pm 17:56 Mostly Cloudy 70 21.1 45 7.2 41 41 S 6 9 30.19 1022 10 16 N/A
6:56 pm 18:56 Mostly Sunny 68 20 46 7.8 45 45 SSW 5 7 30.18 1022 10 16 N/A
7:56 pm 19:56 Sunny 66 18.9 48 8.9 52 52 SSW 3 6 30.18 1022 10 16 N/A
8:56 pm 20:56 Clear 64 17.8 50 10 60 60 N N/A 30.18 1022 10 16 N/A
9:56 pm 21:56 Clear 61 16.1 50 10 67 67 N N/A 30.20 1023 10 16 N/A
10:56 pm 22:56 Clear 57 13.9 53 11.7 87 87 ESE 3 6 30.21 1023 10 16 N/A
11:56 pm 23:56 Clear 56 13.3 52 11.1 87 87 N N/A 30.20 1023 10 16 N/A

Powered by AerisWeather